This is the latest recevied weather packets stored in our database for station/object KE5VT. If no packets are shown the sender has not sent any weather packets the latest 10 day(s).
| Time | Temp. | Humidity | Pressure | Rain* | Wind** | Luminosity | Snow |
|---|---|---|---|---|---|---|---|
| 1787835349 | 22.78° C | 99% | 1012.7 hPa | 0 mm | - | 85 W/m² | - |
| 1787835045 | 22.78° C | 99% | 1012.8 hPa | 0 mm | - | 56 W/m² | - |
| 1787834743 | 22.78° C | 99% | 1012.7 hPa | 0 mm | - | 78 W/m² | - |
| 1787834439 | 22.78° C | 99% | 1012.5 hPa | 0 mm | - | 49 W/m² | - |
| 1787834135 | 22.78° C | 99% | 1012.8 hPa | 0 mm | - | 44 W/m² | - |
| 1787833830 | 22.78° C | 99% | 1012.7 hPa | 0 mm | - | 30 W/m² | - |
| 1787833525 | 22.78° C | 99% | 1012.7 hPa | 0 mm | - | 25 W/m² | - |
| 1787833221 | 22.78° C | 99% | 1012.7 hPa | 0 mm | - | 23 W/m² | - |
| 1787832916 | 22.78° C | 99% | 1012.6 hPa | 0 mm | - | 22 W/m² | - |
| 1787832613 | 22.78° C | 99% | 1012.4 hPa | 0 mm | - | 19 W/m² | - |
| 1787832311 | 22.78° C | 99% | 1012.3 hPa | 0 mm | - | 21 W/m² | - |
| 1787832010 | 22.78° C | 99% | 1012.4 hPa | 0 mm | - | 21 W/m² | - |
| 1787831704 | 22.78° C | 99% | 1012.4 hPa | 0 mm | - | 19 W/m² | - |
| 1787831403 | 22.78° C | 99% | 1012.4 hPa | 0 mm | - | 19 W/m² | - |
| 1787831101 | 22.78° C | 99% | 1012.1 hPa | 0 mm | - | 19 W/m² | - |
| 1787830799 | 22.78° C | 99% | 1012.3 hPa | 0 mm | - | 18 W/m² | - |
| 1787830498 | 22.78° C | 99% | 1012.4 hPa | 0 mm | - | 18 W/m² | - |
| 1787830197 | 22.78° C | 99% | 1012.3 hPa | 0 mm | - | 17 W/m² | - |
| 1787829892 | 22.78° C | 99% | 1012.5 hPa | 0 mm | - | 15 W/m² | - |
| 1787829591 | 22.78° C | 99% | 1012.3 hPa | 0 mm | - | 11 W/m² | - |
| 1787829287 | 22.78° C | 99% | 1012.4 hPa | 0 mm | - | 8 W/m² | - |
| 1787828982 | 22.78° C | 99% | 1012.4 hPa | 0 mm | - | 6 W/m² | - |
| 1787828679 | 22.78° C | 99% | 1012.4 hPa | 0 mm | - | 4 W/m² | - |
| 1787828374 | 22.78° C | 99% | 1012.6 hPa | 0 mm | - | 3 W/m² | - |
| 1787828073 | 22.78° C | 99% | 1012.4 hPa | 0 mm | - | 1 W/m² | - |
* Rain latest hour (hover to see other rain measurements)
** Current wind speed in m/s (hover to see current wind gust speed)